Lapse_Rate
6.9 6.9 7.0 7.0 7.1 7.1 7.2 7.3 7.4 7.3 7.2 7.2 7.2 7.3 7.3 7.2 7.2 7.2 7.1 7.1 7.0 7.0 7.0 6.9 6.9 6.8 6.7 6.6 6.6 6.6 6.5 6.6
6.9 6.9 7.0 7.0 7.0 7.1 7.3 7.3 7.3 7.1 7.2 7.2 7.3 7.4 7.3 7.3 7.3 7.3 7.2 7.2 7.0 7.0 7.0 6.7 6.6 6.5 6.5 6.4 6.3 6.4 6.3 6.3
6.9 6.9 6.8 6.9 7.0 7.0 7.1 7.2 7.3 7.3 7.3 7.2 7.2 7.2 7.2 7.2 7.2 7.2 7.2 7.2 7.0 6.9 6.8 6.6 6.5 6.3 6.2 6.1 6.0 6.0 6.0 6.0
6.7 6.6 6.7 6.9 7.0 7.2 7.3 7.4 7.4 7.2 7.2 7.2 7.2 7.4 7.2 7.1 7.1 7.0 7.0 7.0 6.9 6.7 6.5 6.4 6.2 6.2 6.1 6.0 5.9 5.8 5.8 5.8
6.5 6.6 6.6 6.8 7.0 7.1 7.3 7.1 7.1 7.1 7.0 7.2 7.4 7.3 7.3 7.1 7.0 6.8 6.7 6.6 6.5 6.4 6.3 6.2 6.1 6.1 6.1 6.0 5.9 5.7 5.6 5.6
6.6 6.6 7.0 7.2 7.5 7.4 7.1 7.2 7.3 7.2 7.2 7.3 7.4 7.3 7.2 7.0 6.7 6.5 6.3 6.2 6.1 6.1 6.1 6.1 6.2 6.1 6.1 6.0 6.0 5.8 5.6 5.6
6.6 6.8 7.0 7.1 7.2 7.2 7.3 7.3 7.2 7.3 7.2 7.1 7.0 6.8 6.8 6.6 6.5 6.2 6.0 6.0 6.1 6.0 6.0 6.0 6.0 6.0 5.9 5.9 6.0 6.0 5.9 5.9
6.7 7.2 7.2 7.0 7.2 7.5 7.0 7.0 7.1 7.1 7.1 7.0 6.8 6.6 6.4 6.4 6.3 6.0 5.9 6.0 6.0 5.9 5.8 5.8 5.6 5.5 5.5 5.6 5.8 5.9 5.9 5.9
6.5 6.6 6.9 7.1 6.8 7.1 7.1 7.0 6.9 7.0 6.9 6.8 6.9 6.8 6.8 6.6 6.3 6.2 6.1 6.0 6.0 5.8 5.7 5.6 5.4 5.3 5.3 5.5 5.6 5.7 5.8 5.8
6.5 6.5 6.3 6.7 6.5 6.3 6.6 6.7 6.7 6.6 6.7 6.9 6.7 6.8 6.8 6.8 6.7 6.5 6.3 6.2 5.9 5.8 5.6 5.5 5.3 5.2 5.4 5.6 5.6 5.6 5.6 5.8
6.4 6.6 6.4 6.1 5.9 6.3 6.6 6.7 6.8 6.9 6.7 6.6 6.5 6.5 6.4 6.3 6.4 6.2 6.1 6.0 5.7 5.6 5.4 5.2 5.2 5.3 5.4 5.5 5.6 5.7 5.6 5.5
6.5 6.5 6.3 6.1 6.4 6.6 6.9 6.8 6.8 6.6 6.4 6.3 6.2 6.0 5.7 5.7 5.8 5.8 5.6 5.5 5.4 5.3 5.1 5.2 5.2 5.3 5.4 5.4 5.5 5.6 5.5 5.5
6.8 6.8 6.8 6.9 6.9 7.0 6.9 7.0 6.8 6.7 6.5 5.9 5.7 5.9 6.1 6.0 5.9 5.6 5.6 5.4 5.3 5.3 5.7 5.8 5.7 5.6 5.4 5.4 5.4 5.4 5.3 5.3
7.2 7.3 7.4 7.3 7.4 7.3 7.1 6.7 6.4 6.1 5.9 5.9 6.1 6.1 6.0 5.8 5.7 5.6 5.5 4.9 5.0 4.8 4.9 5.0 5.0 4.9 5.1 5.2 5.3 5.7 6.0 6.0
7.3 7.1 6.8 6.8 6.8 6.8 6.8 6.6 6.3 6.2 6.0 6.2 6.2 6.0 5.8 5.7 5.5 5.4 5.2 5.1 5.0 5.0 5.1 5.1 5.1 5.1 5.1 5.1 5.1 5.2 5.4 5.8
7.1 7.0 7.0 7.0 6.9 6.8 6.6 6.5 6.4 6.6 6.8 6.9 6.6 6.5 6.7 6.2 5.9 5.8 5.6 5.5 5.3 5.1 5.0 5.0 5.1 5.1 5.2 5.3 5.2 5.1 5.2 5.4
7.3 7.3 7.3 7.3 7.3 7.2 6.9 6.9 7.1 7.0 6.6 6.4 6.1 5.8 5.8 5.6 5.5 5.4 5.3 5.3 5.4 5.5 5.6 5.7 5.7 5.6 5.6 5.5 5.3 5.3 5.1 5.1
7.2 7.3 7.4 7.4 6.9 6.9 6.8 6.7 6.4 6.2 5.9 5.8 5.7 5.5 5.3 5.0 4.9 5.0 5.2 5.4 5.5 5.7 5.7 5.7 5.8 5.8 5.7 5.6 5.6 5.6 5.5 5.3
7.5 7.4 7.2 6.8 6.6 6.5 6.3 6.0 5.8 5.6 5.5 5.2 5.1 4.8 4.6 4.6 4.6 4.8 4.8 5.0 5.3 5.5 5.6 5.6 5.6 5.4 5.4 5.5 5.5 5.5 5.6 5.8
6.9 6.6 6.3 6.3 6.2 6.1 5.9 5.7 5.4 5.0 4.9 4.8 4.6 4.3 4.2 4.3 4.3 4.5 4.8 5.1 5.4 5.6 5.6 5.6 5.6 5.8 5.9 5.9 5.7 5.9 6.0 6.0
Wind_Speed
13 14 15 15 15 15 14 14 14 13 13 11 11 9 8 7 6 5 5 4 2 3 4 5 6 7 8 8 7 9 10 12
10 12 13 14 15 15 15 14 13 12 12 10 9 7 6 5 4 3 3 1 1 3 4 5 7 8 10 11 8 6 7 7
7 10 12 13 13 12 12 12 11 11 10 10 8 6 5 3 2 2 2 3 4 4 5 7 9 11 12 12 12 6 6 5
6 8 10 13 8 10 10 10 10 10 10 9 7 5 4 5 5 5 6 7 7 7 7 8 9 10 12 12 10 9 8 8
8 8 12 11 10 12 9 9 8 8 8 8 8 6 6 6 6 7 7 8 8 8 8 7 7 8 10 10 11 11 11 11
8 9 10 13 12 12 14 11 12 10 11 9 7 7 6 6 8 6 6 7 8 8 7 7 7 8 9 11 11 10 11 14
10 10 9 12 8 9 9 9 11 13 11 10 8 6 4 4 2 4 4 3 4 5 6 8 9 10 10 8 10 13 14 15
11 11 8 7 6 6 8 10 12 11 10 10 11 9 7 5 4 3 3 6 8 7 7 7 7 9 8 12 12 12 13 14
7 6 7 5 3 3 2 2 4 5 7 10 10 8 7 7 2 5 6 7 8 8 8 7 5 8 5 9 10 14 13 12
5 4 7 6 6 10 10 8 5 6 1 1 1 2 4 6 5 5 7 8 9 6 4 4 3 4 4 4 5 10 12 14
8 9 7 7 10 10 9 12 11 14 11 9 12 14 12 11 9 10 12 11 8 4 2 3 3 4 4 4 5 4 6 9
10 7 5 6 3 5 7 10 13 15 14 15 18 16 16 14 11 11 10 5 4 4 2 2 2 2 5 6 5 5 4 4
7 6 4 3 1 3 4 4 3 4 11 13 14 13 14 12 8 9 10 4 3 4 3 4 2 4 2 4 4 3 2 3
6 5 6 3 4 3 3 3 4 4 7 12 12 12 11 10 7 4 6 3 5 5 5 3 2 4 3 2 4 5 3 8
6 6 7 5 5 3 3 4 3 2 2 2 3 7 7 7 7 7 6 5 3 2 3 3 3 2 3 1 4 3 5 2
7 7 7 5 6 4 5 4 3 2 2 1 2 5 6 6 7 6 5 3 4 3 3 3 3 3 3 2 2 2 2 4
7 7 6 4 4 4 4 3 1 1 1 2 2 3 6 7 7 7 6 5 4 4 4 4 3 2 1 2 2 2 2 2
5 7 5 5 6 6 7 6 3 2 2 2 2 2 3 5 5 4 3 2 1 1 2 3 3 3 2 2 2 3 3 4
4 5 5 5 6 6 6 6 5 4 0 2 1 0 1 2 1 1 2 3 4 4 2 3 3 2 3 3 3 4 2 3
5 6 5 5 5 6 5 4 2 1 1 2 2 2 3 5 4 6 7 6 5 5 2 3 3 4 5 4 3 4 3 4
Wind_Direction
132 133 139 141 143 144 146 143 141 140 139 145 150 154 150 144 135 128 114 98 79 54 32 14 358 352 350 0 12 19 18 3
139 153 152 150 150 157 152 149 148 147 150 158 161 160 158 160 150 151 131 113 349 346 347 346 342 337 338 348 5 25 19 12
163 166 164 163 164 163 154 155 160 163 172 174 174 176 182 199 224 235 238 251 271 292 309 323 330 327 329 335 343 350 346 345
197 188 174 169 162 171 169 170 176 179 183 188 202 208 210 225 265 271 262 264 274 288 298 302 307 311 311 316 320 320 319 317
198 192 186 175 166 179 190 189 188 198 202 215 222 234 238 240 261 277 273 286 292 304 305 300 290 293 295 291 294 297 295 295
194 207 186 195 178 182 193 193 194 202 213 215 231 237 246 238 244 273 287 307 309 310 309 309 307 305 296 297 297 286 285 285
197 201 201 198 192 188 196 206 205 211 210 224 207 188 179 170 207 251 257 290 311 351 350 340 335 332 336 323 315 312 303 293
199 203 205 185 177 174 204 212 224 225 221 211 194 193 182 178 192 225 10 17 9 9 2 357 360 2 353 348 332 326 320 317
182 162 155 152 112 115 160 189 191 216 216 202 205 200 194 183 155 42 21 15 24 32 27 20 13 6 353 340 339 334 327 320
123 88 62 49 32 31 24 35 21 359 47 228 353 4 30 45 54 35 18 31 27 17 14 357 9 12 332 320 318 323 320 324
71 64 55 38 5 37 63 49 51 44 51 50 51 56 56 61 50 34 27 33 31 9 4 16 339 344 322 309 310 311 305 338
73 64 51 89 41 39 51 59 54 51 48 56 65 63 65 66 56 44 44 42 25 11 345 319 301 323 308 309 304 292 345 26
72 75 16 72 27 66 50 54 26 34 59 61 66 72 69 66 59 46 35 39 359 353 329 340 327 329 329 309 255 282 97 11
97 113 116 95 93 90 106 122 78 89 77 73 79 83 77 71 66 46 28 15 19 17 16 331 323 11 342 291 340 318 357 337
120 96 86 82 101 92 70 61 53 46 39 75 73 94 84 76 66 62 54 51 38 6 356 7 320 317 22 16 331 291 335 338
129 130 121 120 134 121 144 156 156 184 167 154 88 62 59 79 88 86 80 66 36 351 354 337 349 331 333 10 271 277 308 315
147 134 130 124 110 110 109 90 79 98 94 130 121 83 69 59 60 55 46 32 18 13 3 360 348 309 300 329 332 317 270 255
119 113 88 88 94 88 99 107 101 71 17 11 353 46 51 64 65 58 47 39 6 329 321 313 293 289 276 254 254 294 302 287
83 83 89 84 89 88 91 91 76 72 104 243 316 178 197 223 214 279 242 246 254 243 249 255 245 243 258 264 257 253 251 275
93 114 112 106 100 93 84 83 100 204 241 167 169 181 209 225 236 236 240 248 266 255 255 266 268 266 275 259 267 259 266 259